American Canyon, CA

4:14 AM PST on January 20, 2017 (GMT -0800)
Napa County

Weather History for KAPC - January, 2014

Change the Weather History Date:

Tuesday, January 28, 2014

  Actual Average Record
Temperature  
Mean Temperature 57 °F 47 °F  
Max Temperature 68 °F 56 °F 68 °F (2014)
Min Temperature 46 °F 38 °F 27 °F (1999)
Degree Days  
Heating Degree Days 8    
Month to date heating degree days 451  
Since 1 July heating degree days 1796  
Cooling Degree Days 0    
Month to date cooling degree days 0  
Year to date cooling degree days 0  
Growing Degree Days 7 (Base 50)    
Moisture  
Dew Point 53 °F    
Average Humidity 84    
Maximum Humidity 100    
Minimum Humidity 67    
Precipitation  
Precipitation 0.00 in - 1.20 in (1950)
Month to date precipitation T  
Year to date precipitation T  
Since 1 July precipitation 2.20  
Sea Level Pressure  
Sea Level Pressure 30.19 in    
Wind  
Wind Speed 5 mph (WSW)    
Max Wind Speed 16 mph    
Max Gust Speed 20 mph    
Visibility 10 miles    
Events      
T = Trace of Precipitation, MM = Missing Value Source: NWS Daily Summary

Daily Weather History Graph

Daily Weather History Graph

Search for Another Location

Airport or City:

Trip Planner

Search our weather history database for the weather conditions in past years. The results will help you decide how hot, cold, wet, or windy it might be!

Date:

Astronomy

Jan. 28, 2014 Rise Set
Actual Time 7:17 AM PST 5:27 PM PST
Civil Twilight 6:49 AM PST 5:55 PM PST
Nautical Twilight 6:17 AM PST 6:27 PM PST
Astronomical Twilight 5:46 AM PST 6:58 PM PST
Moon 5:03 AM PST (1/28) 3:24 PM PST (1/28)
Length of Visible Light 11h 06m
Length of Day
10h 10m
Waning Crescent, 6% of the Moon is Illuminated
Jan 28
Waning Crescent
Jan 30
New
Feb 6
First Quarter
Feb 14
Full
Feb 22
Last Quarter

Hourly Weather History & Observations

Time (PST) Temp. Dew Point Humidity Pressure Visibility Wind Dir Wind Speed Gust Speed Precip Events Conditions
12:54 AM 48.0 °F 46.9 °F 96% 30.17 in 10.0 mi South 3.5 mph - N/A   Clear
1:54 AM 48.0 °F 46.9 °F 96% 30.17 in 10.0 mi Calm Calm - N/A   Mostly Cloudy
2:54 AM 48.9 °F 48.0 °F 97% 30.19 in 10.0 mi Calm Calm - N/A   Mostly Cloudy
3:54 AM 48.9 °F 48.0 °F 97% 30.17 in 10.0 mi Calm Calm - N/A   Overcast
4:54 AM 48.0 °F 46.9 °F 96% 30.18 in 10.0 mi Calm Calm - N/A   Mostly Cloudy
5:54 AM 50.0 °F 48.0 °F 93% 30.18 in 10.0 mi Calm Calm - N/A   Overcast
6:54 AM 48.9 °F 48.0 °F 97% 30.20 in 10.0 mi Calm Calm - N/A   Scattered Clouds
7:54 AM 48.9 °F 48.0 °F 97% 30.21 in 9.0 mi Calm Calm - N/A   Overcast
8:54 AM 53.1 °F 48.9 °F 86% 30.22 in 10.0 mi NNE 3.5 mph - N/A   Mostly Cloudy
9:54 AM 54.0 °F 51.1 °F 90% 30.24 in 10.0 mi Calm Calm - N/A   Overcast
10:54 AM 57.0 °F 51.1 °F 81% 30.24 in 10.0 mi Calm Calm - N/A   Overcast
11:54 AM 59.0 °F 51.1 °F 75% 30.22 in 10.0 mi SW 3.5 mph - N/A   Clear
12:54 PM 61.0 °F 51.1 °F 70% 30.18 in 10.0 mi SSW 5.8 mph - N/A   Clear
1:54 PM 61.0 °F 51.1 °F 70% 30.17 in 10.0 mi SSW 6.9 mph - N/A   Overcast
2:54 PM 64.0 °F 53.1 °F 67% 30.16 in 10.0 mi SSW 9.2 mph - N/A   Overcast
3:40 PM 66.2 °F 55.4 °F 68% 30.17 in 10.0 mi West 15.0 mph - N/A   Overcast
3:54 PM 66.9 °F 55.9 °F 68% 30.15 in 10.0 mi West 13.8 mph - N/A   Overcast
4:54 PM 63.0 °F 55.9 °F 78% 30.16 in 10.0 mi West 13.8 mph - N/A   Clear
5:28 PM 62.6 °F 55.4 °F 77% 30.18 in 10.0 mi West 10.4 mph - N/A   Mostly Cloudy
5:54 PM 61.0 °F 55.9 °F 83% 30.16 in 10.0 mi West 8.1 mph - N/A   Overcast
6:54 PM 60.1 °F 57.0 °F 90% 30.17 in 10.0 mi West 9.2 mph - N/A   Overcast
7:54 PM 59.0 °F 57.0 °F 93% 30.19 in 10.0 mi West 10.4 mph - N/A   Overcast
8:24 PM 57.2 °F 55.4 °F 94% 30.20 in 10.0 mi West 9.2 mph - N/A   Scattered Clouds
8:54 PM 57.0 °F 55.9 °F 96% 30.18 in 10.0 mi WSW 8.1 mph - N/A   Partly Cloudy
9:42 PM 57.2 °F 55.4 °F 94% 30.20 in 10.0 mi WSW 3.5 mph - N/A   Mostly Cloudy
9:54 PM 57.0 °F 55.9 °F 96% 30.17 in 10.0 mi WSW 10.4 mph - N/A   Overcast
10:09 PM 57.2 °F 55.4 °F 94% 30.21 in 10.0 mi West 8.1 mph - N/A   Overcast
10:54 PM 57.0 °F 55.9 °F 96% 30.19 in 10.0 mi West 6.9 mph - N/A   Overcast
11:21 PM 55.4 °F 55.4 °F 100% 30.21 in 10.0 mi West 6.9 mph - N/A   Overcast
11:54 PM 55.9 °F 55.0 °F 97% 30.17 in 10.0 mi WSW 8.1 mph - N/A   Mostly Cloudy